This is the latest recevied weather packets stored in our database for station/object KC5TIL. If no packets are shown the sender has not sent any weather packets the latest 1 day(s).
| Time | Temp. | Humidity | Pressure | Rain* | Wind** | Luminosity | Snow |
|---|---|---|---|---|---|---|---|
| 1778099970 | 16.11° C | 75% | 1015.5 hPa | 0 mm | - | 117 W/m² | - |
| 1778099364 | 16.67° C | 73% | 1015.7 hPa | 0 mm | - | 182 W/m² | - |
| 1778096635 | 15.56° C | 76% | 1016.6 hPa | 0 mm | - | 405 W/m² | - |
| 1778096029 | 15° C | 78% | 1016.4 hPa | 0 mm | - | 344 W/m² | - |
| 1778093906 | 13.89° C | 82% | 1017 hPa | 0 mm | - | 115 W/m² | - |
| 1778093603 | 13.89° C | 81% | 1017.1 hPa | 0 mm | - | 116 W/m² | - |
| 1778093300 | 13.89° C | 82% | 1017.1 hPa | 0 mm | - | 95 W/m² | - |
| 1778091482 | 13.89° C | 82% | 1016.3 hPa | 0 mm | - | 184 W/m² | - |
| 1778090572 | 13.89° C | 82% | 1015.3 hPa | 0 mm | - | 220 W/m² | - |
| 1778089663 | 13.89° C | 84% | 1015.8 hPa | 0 mm | - | 275 W/m² | - |
| 1778088451 | 13.33° C | 86% | 1016.5 hPa | 0 mm | - | 110 W/m² | - |
| 1778087240 | 12.78° C | 88% | 1016.2 hPa | 0 mm | - | 121 W/m² | - |
| 1778086635 | 12.78° C | 88% | 1016.4 hPa | 0 mm | - | 110 W/m² | - |
| 1778085422 | 12.78° C | 87% | 1016.2 hPa | 0 mm | - | 63 W/m² | - |
| 1778085117 | 12.78° C | 88% | 1016.2 hPa | 0 mm | - | 96 W/m² | - |
| 1778082998 | 12.78° C | 87% | 1016.5 hPa | 0 mm | - | 249 W/m² | - |
| 1778080951 | 11.67° C | 92% | 1015.6 hPa | 0 mm | - | 174 W/m² | - |
| 1778080650 | 11.67° C | 92% | 1016.4 hPa | 1.78 mm | - | 115 W/m² | - |
| 1778079437 | 12.22° C | 87% | 1017.9 hPa | 1.27 mm | - | 23 W/m² | - |
| 1778079133 | 12.22° C | 85% | 1018.1 hPa | 0 mm | - | 11 W/m² | - |
| 1778077621 | 12.22° C | 82% | 1016.6 hPa | 0 mm | - | 32 W/m² | - |
| 1778077016 | 12.22° C | 82% | 1016.2 hPa | 0 mm | - | 50 W/m² | - |
| 1778076714 | 12.22° C | 82% | 1016.1 hPa | 0 mm | - | 61 W/m² | - |
| 1778073986 | 12.22° C | 81% | 1015.6 hPa | 0 mm | - | 54 W/m² | - |
| 1778073380 | 12.78° C | 79% | 1015.6 hPa | 0 mm | - | 52 W/m² | - |
* Rain latest hour (hover to see other rain measurements)
** Current wind speed in m/s (hover to see current wind gust speed)